Theta_e
298 298 297 296 296 297 297 296 295 295 296 296 296 296 296 296 297 297 298 298 299 299 299 298 298 297 296 296 296 297 299 300 300 299 298 298 298 297 297 297 296 296 296 296 296 297 297 297 296 297 297 295 295 295 295 295 295 295 295 296 296 296 295 294 294 293 292 291 292
297 296 295 294 294 296 296 296 296 296 296 297 297 297 297 297 298 298 298 298 298 298 299 299 298 297 297 297 297 298 298 298 297 296 296 295 295 295 295 295 295 295 295 295 296 297 297 296 296 296 296 296 295 295 296 296 296 296 296 296 296 295 295 294 294 293 292 292 293
296 296 295 296 296 297 297 297 297 297 297 297 297 298 298 298 298 298 298 298 298 298 299 299 298 298 297 297 297 296 296 295 294 294 294 294 294 294 294 294 294 294 294 294 295 295 295 295 295 295 295 296 295 295 295 296 296 295 295 295 295 295 295 295 295 294 294 293 293
296 296 296 296 296 297 297 297 297 297 298 298 298 298 298 299 299 300 300 300 299 299 299 298 297 296 296 295 294 294 293 292 292 292 292 292 292 293 293 293 293 293 293 293 293 293 293 293 294 294 294 293 293 294 294 295 294 294 294 294 294 294 294 294 293 293 293 293 292
295 296 296 297 297 298 298 298 298 298 298 299 299 299 299 300 301 301 301 300 300 299 297 295 294 294 293 292 292 291 291 291 291 291 292 291 291 291 291 291 291 291 291 292 292 292 292 292 293 293 294 294 294 294 293 292 292 292 292 293 293 293 292 292 292 292 292 292 291
296 296 297 297 298 299 299 299 299 299 299 299 299 299 299 299 300 299 299 298 297 295 294 292 291 291 291 291 290 290 290 290 290 290 290 290 290 290 290 290 290 290 290 290 290 291 291 291 292 292 292 293 293 292 291 290 290 290 290 290 290 290 290 289 290 290 290 290 289
296 297 297 298 298 299 299 299 299 299 300 299 299 298 297 297 296 295 295 294 293 292 291 290 290 290 289 289 289 289 289 289 289 289 289 290 290 290 289 289 289 289 289 289 289 290 290 290 291 291 290 290 290 289 288 287 287 287 287 287 288 288 288 287 288 289 288 287 287
296 297 297 297 297 297 297 297 298 298 298 298 296 295 294 293 292 292 292 292 292 291 290 289 289 289 289 289 289 289 289 288 288 288 288 289 289 289 289 289 289 289 289 289 288 289 289 289 290 289 289 289 289 288 286 285 285 285 285 285 286 286 286 286 287 287 287 286 286
295 295 295 296 296 296 295 295 296 295 295 295 294 293 292 291 291 291 292 292 291 290 289 289 289 288 289 289 289 288 288 288 287 287 288 288 288 288 288 288 288 288 288 288 288 288 288 288 288 288 287 288 287 286 285 284 284 284 284 284 284 285 285 285 285 285 285 285 285
294 294 294 294 294 294 294 294 294 294 293 293 292 292 292 291 291 292 292 292 291 291 290 290 290 290 289 289 289 288 288 287 287 287 288 288 288 288 288 288 287 287 287 287 287 287 287 287 286 286 286 285 284 284 284 284 284 283 283 284 283 283 283 283 284 284 284 284 284
292 292 292 292 292 292 292 292 293 292 292 292 293 293 293 293 293 293 292 293 292 292 291 291 291 291 291 290 289 289 288 288 288 288 288 288 288 288 287 287 287 287 287 286 286 286 286 286 285 284 284 283 283 283 283 283 283 282 282 282 282 281 282 282 282 282 282 283 283
291 291 291 291 291 291 291 291 291 291 291 291 292 293 294 295 294 294 294 295 294 293 292 291 291 291 291 290 290 289 289 289 289 289 289 288 288 287 287 287 287 286 286 286 286 285 285 284 283 283 282 282 282 282 282 282 282 282 282 281 281 281 281 281 281 281 281 282 282
290 290 290 290 290 290 290 290 291 291 291 291 292 293 294 295 294 295 295 294 293 292 292 291 291 291 290 290 290 290 290 290 290 289 289 288 288 287 287 286 286 286 286 285 285 284 284 283 282 282 282 281 282 282 282 282 281 281 281 280 280 280 280 280 280 280 281 281 281
290 290 290 290 290 290 290 290 291 291 291 291 292 293 294 294 294 294 294 293 292 291 291 291 291 291 291 290 290 290 291 290 290 289 288 287 287 287 286 286 285 285 285 284 284 283 282 282 281 281 281 281 281 281 281 281 281 280 280 280 280 280 280 280 280 280 280 280 280
290 290 290 290 290 291 291 291 291 291 292 291 292 292 293 294 294 295 294 292 291 290 290 290 290 290 290 291 291 291 290 290 289 288 287 286 286 286 286 285 285 284 284 283 283 282 282 281 281 281 281 281 281 281 281 281 281 280 280 280 280 280 280 280 279 279 279 279 279
290 290 290 291 291 291 291 291 291 291 291 291 291 292 292 292 294 294 293 291 290 290 289 289 289 289 290 290 291 291 290 289 288 287 286 286 285 285 285 284 284 284 283 283 282 282 281 281 281 281 281 281 281 280 280 280 280 280 280 280 280 279 279 279 279 279 279 279 279
290 290 290 291 290 290 290 291 291 291 291 291 291 291 292 292 294 293 291 290 290 289 289 289 289 288 288 289 290 290 289 288 287 286 286 286 285 285 285 284 284 283 283 282 282 281 281 280 281 281 281 281 281 280 280 280 280 280 280 279 279 279 279 279 278 278 278 278 278
290 290 290 290 290 290 290 290 290 290 290 290 291 291 292 293 293 292 290 289 288 288 288 288 288 288 288 288 289 288 288 287 286 286 286 285 285 285 284 284 284 283 283 282 282 282 281 281 281 281 281 281 281 280 280 280 280 279 279 279 278 278 278 278 278 278 278 278 278
290 290 290 290 289 289 289 289 289 290 290 290 291 292 292 293 293 292 289 288 287 287 287 287 287 287 288 288 288 288 287 286 286 286 286 285 285 284 284 284 283 283 282 282 282 282 282 282 281 281 281 280 280 280 279 279 278 278 278 278 278 277 277 277 277 277 277 277 277
289 289 289 289 289 289 289 289 289 290 290 291 291 292 292 292 292 291 289 288 287 287 287 287 288 288 289 289 289 288 287 286 286 286 286 285 285 285 284 284 283 283 282 282 282 282 281 281 281 281 281 280 280 279 278 278 277 277 276 276 276 276 276 276 276 276 276 276 277
288 288 288 289 289 289 289 290 290 290 291 291 292 292 292 291 289 289 288 288 287 287 286 286 289 290 290 290 290 289 288 287 286 286 286 285 285 285 285 284 283 282 282 281 281 281 281 280 280 280 280 279 279 278 277 276 276 275 275 275 275 275 275 276 276 276 276 276 276
288 288 288 289 289 289 290 290 291 291 292 292 292 291 291 290 288 287 287 288 287 287 287 287 290 291 291 291 290 290 289 288 287 286 285 285 285 285 284 283 283 282 281 281 280 280 280 279 279 279 279 278 278 277 276 276 275 275 274 274 274 274 275 275 275 275 275 275 275
288 288 289 289 289 290 290 291 292 292 292 292 291 290 290 290 289 287 287 287 287 288 289 291 291 291 291 291 290 290 289 288 287 286 285 285 284 284 283 282 281 281 280 280 279 278 278 278 278 278 277 277 276 276 275 275 275 275 274 274 274 274 274 274 274 274 274 275 275
288 289 289 290 290 291 291 292 293 292 292 292 290 290 289 289 289 288 288 288 289 290 291 291 291 291 291 291 290 289 289 287 287 286 285 284 283 282 281 279 279 279 279 279 279 280 279 278 278 277 276 276 275 275 275 275 275 274 274 274 274 274 274 274 274 274 274 274 275
289 289 290 290 291 291 292 292 292 292 292 291 290 289 289 289 290 289 289 290 291 291 290 289 289 290 290 290 289 288 287 286 286 285 284 283 281 279 278 278 278 278 278 279 283 286 285 282 280 278 276 275 275 275 275 275 275 274 274 275 275 274 274 274 274 274 274 274 274
289 290 290 291 291 292 292 292 292 291 290 290 290 290 289 289 290 290 290 291 290 290 289 289 289 289 289 287 286 286 285 284 284 283 282 281 280 279 278 277 277 278 279 283 286 288 289 287 285 281 277 275 275 275 275 275 275 275 274 274 274 274 274 274 273 273 274 274 274
290 290 290 291 292 292 292 291 291 290 290 290 290 290 289 289 290 290 290 290 289 289 289 289 289 288 287 286 285 285 284 283 282 282 281 280 279 278 278 277 277 278 280 285 288 289 289 289 287 284 280 276 275 275 275 274 274 274 274 274 274 273 273 273 273 273 274 274 274
290 290 291 292 292 292 291 290 290 289 289 289 289 290 290 289 290 289 289 288 289 289 289 289 289 287 286 285 285 284 284 283 282 281 280 279 278 278 277 277 277 278 281 286 288 289 289 289 288 287 283 278 275 275 274 274 274 274 273 273 273 273 273 273 273 273 273 273 274
290 291 292 292 292 292 291 289 289 289 289 289 290 290 290 289 288 288 288 289 289 289 289 289 288 287 286 285 284 284 282 282 280 279 279 278 277 277 277 277 277 279 282 287 288 289 288 289 288 288 286 283 277 274 273 273 273 273 273 273 273 273 273 273 273 273 273 273 273
291 291 292 293 292 291 290 289 289 290 290 290 291 290 290 289 288 288 289 289 289 289 289 288 287 286 285 284 283 282 282 281 280 279 278 278 277 277 277 277 277 279 283 287 288 288 288 288 288 288 287 286 279 275 273 273 273 273 273 273 273 273 272 272 272 272 273 273 273
291 292 292 293 292 291 290 290 290 289 289 290 290 290 290 289 289 289 289 290 289 289 288 287 286 285 284 284 283 282 281 281 279 279 278 278 278 278 277 277 277 279 282 287 288 288 288 288 288 288 287 287 281 276 273 273 273 273 273 273 273 272 272 272 273 273 273 273 273
291 291 292 292 291 291 290 290 289 289 289 289 289 289 289 290 290 289 289 289 288 287 286 285 284 284 283 283 282 282 281 280 279 279 278 278 278 278 278 277 277 279 282 286 287 288 288 288 288 288 287 287 282 277 274 273 273 273 273 273 272 272 272 272 273 273 273 273 273
291 291 291 290 289 289 289 289 289 289 289 289 289 289 289 289 289 289 288 287 286 286 285 284 284 283 283 283 282 282 281 280 279 279 279 278 278 278 278 278 278 280 283 286 287 287 287 288 288 288 287 287 282 278 274 273 273 272 272 272 272 272 273 273 273 273 273 273 273
290 290 290 289 288 288 288 288 288 288 288 288 288 288 288 288 287 287 286 285 285 285 284 284 284 284 283 283 282 281 280 280 279 279 278 278 277 277 278 277 277 280 284 286 286 287 287 287 287 287 287 287 282 278 275 274 273 273 272 272 273 273 274 274 274 274 274 273 273
289 289 289 288 288 288 288 287 287 287 287 287 287 287 287 286 286 286 285 284 284 284 284 284 284 283 283 282 281 281 280 280 279 278 278 277 277 277 277 277 277 280 284 285 286 287 287 287 286 286 286 284 280 277 275 274 273 273 274 274 275 275 276 276 275 275 274 274 274
288 288 288 288 288 288 287 287 286 286 286 285 285 285 285 285 286 286 285 284 285 285 284 284 283 282 282 281 280 280 280 279 279 278 277 276 276 276 276 276 277 280 283 285 286 286 286 286 285 284 283 280 277 275 274 274 273 274 275 276 276 277 277 276 276 276 275 275 275
288 288 287 287 287 287 287 286 286 285 285 285 285 285 285 285 285 285 285 285 285 285 284 283 283 282 281 280 280 279 279 279 278 277 276 276 276 276 275 276 276 278 281 285 286 286 285 285 284 283 281 278 276 275 274 273 274 275 276 277 277 277 277 277 276 276 275 275 276
287 287 286 286 286 286 286 286 285 285 284 284 285 285 285 285 285 285 285 285 285 284 284 283 282 281 280 280 279 278 278 277 277 276 276 275 275 275 275 275 276 277 280 285 285 285 284 284 284 282 280 277 275 274 274 273 274 275 276 277 277 276 276 276 276 276 276 276 278
286 286 286 286 286 286 286 285 284 284 284 284 284 285 285 285 285 285 285 284 284 284 283 283 282 280 279 279 277 277 276 276 276 275 275 275 275 276 276 275 275 277 280 284 284 284 284 284 283 282 280 276 274 274 274 274 275 275 276 276 276 276 275 275 276 276 276 276 279
286 286 286 286 286 285 285 284 284 284 284 284 284 284 284 284 283 284 284 283 283 282 282 282 281 280 279 277 276 276 275 275 275 275 274 274 276 277 278 275 275 276 279 282 284 284 284 283 283 282 280 276 274 273 274 275 275 275 275 276 276 275 275 275 275 276 276 276 278
286 286 286 286 286 285 285 284 284 284 284 284 283 283 283 283 283 283 283 283 282 281 281 280 279 278 277 276 275 275 274 274 274 274 274 274 275 277 277 274 274 275 277 280 283 283 283 283 283 283 281 278 275 274 274 275 275 275 275 275 275 275 275 275 275 276 276 276 276
Wind_Speed
7 6 5 4 4 3 3 2 2 1 1 1 2 2 2 2 3 3 3 2 2 3 3 4 4 5 5 5 4 4 4 5 5 6 6 6 6 6 6 6 6 6 6 6 6 6 5 5 5 4 4 3 4 4 4 4 4 5 6 7 6 6 5 5 5 6 6 6 5
6 5 4 4 3 3 3 3 2 2 2 1 2 2 3 3 4 4 5 4 4 4 5 5 5 5 5 4 3 3 4 5 6 6 6 6 6 6 6 6 6 6 6 6 6 6 5 5 5 4 4 3 4 4 5 5 5 5 6 7 5 5 5 4 5 5 5 5 5
5 5 5 4 4 4 4 4 3 3 3 3 3 3 4 4 5 5 6 7 7 7 6 6 5 4 3 3 3 4 5 5 5 6 6 6 7 7 7 7 7 6 6 6 6 6 5 5 5 4 3 3 4 4 4 5 5 5 5 5 4 3 3 3 4 4 5 5 5
5 5 5 5 5 5 5 4 5 5 5 5 5 5 5 5 6 6 7 9 9 8 6 4 3 2 2 4 4 4 4 4 5 6 7 7 7 7 7 6 6 6 6 6 6 6 5 5 4 3 3 3 4 4 4 4 4 4 4 3 3 3 3 3 3 3 4 4 4
7 6 5 6 7 7 6 6 7 8 7 6 6 6 6 6 6 7 8 9 7 6 4 2 1 2 3 4 4 4 4 5 6 6 6 6 6 6 6 6 6 5 5 6 5 5 5 4 4 3 3 3 3 3 3 3 4 3 3 3 3 2 2 3 3 3 3 3 3
9 9 9 9 10 10 10 9 10 10 9 8 8 8 8 7 7 8 8 8 7 5 4 2 1 2 2 3 4 4 5 5 5 5 6 6 5 5 5 6 6 5 5 5 5 4 4 4 3 3 3 3 4 4 4 4 4 3 3 3 2 2 2 3 3 3 3 4 4
11 12 12 13 13 13 13 13 12 12 11 9 10 10 10 9 9 9 9 8 7 6 5 3 2 2 3 4 5 5 5 5 5 5 5 5 5 5 5 5 5 5 5 4 4 4 4 4 3 3 3 3 3 3 4 4 4 4 3 3 2 2 2 3 3 3 4 5 5
12 13 13 14 14 15 15 15 13 12 11 9 9 10 10 9 9 8 8 7 7 6 6 5 5 5 5 7 7 7 7 7 6 6 5 5 5 5 5 5 5 5 5 4 4 4 4 4 3 3 3 3 3 3 3 3 4 4 3 3 2 2 2 3 3 3 4 5 6
11 12 12 13 13 14 14 14 13 11 10 9 9 9 8 8 7 7 6 6 6 6 5 6 7 8 10 11 11 10 9 9 8 7 7 6 6 6 5 5 5 5 4 4 4 4 4 3 3 3 3 3 3 3 3 3 4 3 3 2 2 2 3 3 3 3 4 5 6
11 11 11 11 11 12 12 12 11 10 10 9 10 10 9 8 7 5 4 4 4 5 6 7 8 10 11 11 10 10 9 8 8 8 8 7 7 7 6 5 5 4 4 3 3 3 3 3 3 3 3 3 3 3 2 3 3 3 2 1 2 2 3 3 3 3 4 4 5
10 10 10 10 10 11 10 10 10 9 9 9 10 11 10 10 7 5 3 3 4 6 7 7 9 9 9 8 7 7 7 7 7 8 8 9 8 8 7 5 4 4 3 2 2 2 2 3 3 3 2 2 2 2 2 3 3 2 1 1 1 2 3 3 3 3 3 3 4
10 10 10 10 10 11 10 10 9 9 9 10 11 11 11 11 8 6 3 4 5 6 6 7 8 8 7 6 5 5 6 7 7 8 8 8 7 7 6 4 3 3 2 2 1 1 2 2 2 2 1 1 1 2 2 2 2 1 1 1 1 1 2 3 3 3 2 3 4
10 11 11 11 11 11 11 11 10 10 10 11 11 11 11 11 8 5 3 4 5 5 5 6 7 7 6 5 5 5 5 6 6 5 5 4 5 4 4 4 3 2 2 1 1 1 1 2 2 2 1 1 1 1 2 2 2 1 0 1 1 1 2 3 3 3 3 3 3
11 11 12 12 12 12 12 12 11 10 11 12 11 10 10 11 7 3 2 4 4 4 4 5 5 5 5 5 5 5 5 4 3 2 2 3 3 4 4 4 3 2 2 1 1 1 1 2 2 2 2 1 2 2 2 2 2 2 1 1 1 2 2 3 2 2 3 4 4
12 12 13 13 13 13 12 12 11 11 11 12 11 10 10 10 6 2 2 4 4 4 4 4 4 4 4 4 4 5 5 4 2 1 2 4 4 5 5 4 4 3 2 2 1 1 2 2 2 3 3 2 2 2 2 2 3 3 2 2 2 2 2 2 2 2 3 4 4
13 13 13 13 14 13 12 12 11 11 12 12 12 11 10 9 4 1 3 3 4 4 4 5 5 4 3 3 4 4 5 4 3 3 4 4 5 5 5 4 4 3 3 2 2 2 2 2 3 3 3 3 3 3 3 3 3 3 3 3 2 2 2 2 2 2 3 3 4
13 13 13 14 14 14 13 12 11 11 12 13 13 12 10 8 3 1 2 3 3 4 4 5 5 4 3 2 3 3 3 3 3 4 4 5 6 6 5 5 5 4 3 3 2 3 3 3 3 3 3 3 3 3 3 3 3 3 3 2 2 2 2 2 1 2 2 3 4
13 13 13 14 14 14 14 13 13 12 13 13 13 12 10 8 3 0 1 2 3 4 5 5 4 3 3 2 2 2 2 3 3 4 5 6 6 6 6 6 5 5 4 3 3 3 3 3 3 3 3 3 3 3 3 3 3 3 2 2 2 2 2 1 1 1 2 3 4
13 13 13 14 14 14 14 13 13 13 13 13 13 12 11 8 3 1 2 2 3 4 5 5 4 3 3 2 2 2 3 3 4 5 6 6 6 6 6 7 6 4 3 3 3 3 3 4 3 3 3 3 3 3 2 2 2 2 2 2 2 2 1 1 1 1 1 2 3
13 13 13 13 13 13 13 13 13 14 14 13 13 12 11 8 4 3 3 3 2 3 5 4 3 3 2 2 2 3 4 4 5 6 6 6 6 6 6 6 5 4 3 2 3 3 4 4 4 3 3 3 3 2 2 1 2 2 2 2 2 1 1 1 1 1 1 2 3
12 13 13 13 13 13 13 14 14 14 14 14 13 12 11 9 5 3 1 3 3 3 4 3 2 1 1 2 3 5 5 5 5 6 6 6 6 6 6 4 4 3 3 2 3 3 4 4 4 3 3 3 2 2 2 2 2 2 1 1 1 1 1 1 1 1 2 2 3
13 13 13 13 13 13 14 14 14 14 15 15 12 12 11 9 5 3 3 2 2 3 3 2 1 2 3 4 5 6 6 5 6 6 6 6 6 5 4 3 2 3 3 3 3 3 3 3 3 3 2 2 2 2 2 2 2 1 1 1 1 1 1 1 1 1 2 2 3
13 13 13 13 13 14 14 14 15 15 15 14 11 10 9 7 5 5 5 4 3 3 3 3 2 3 5 5 6 6 6 6 6 6 6 5 4 4 3 2 2 2 3 3 3 3 3 3 2 2 2 2 2 2 3 3 2 1 1 0 1 1 2 1 1 2 2 3 3
14 13 13 12 13 14 14 14 15 15 14 12 10 8 7 6 5 5 4 4 4 4 3 3 3 4 5 6 6 6 6 6 7 7 6 5 4 3 3 2 2 2 3 3 3 3 3 2 2 2 2 2 2 2 2 2 2 2 1 1 1 1 2 2 2 2 3 3 3
14 14 14 13 14 14 14 14 14 13 12 10 8 7 6 5 5 4 4 4 4 4 3 4 4 5 6 6 6 6 5 5 6 6 5 5 4 3 2 2 2 2 3 3 5 5 5 4 3 2 2 2 2 2 2 2 2 2 2 1 1 1 2 3 3 3 3 3 3
14 14 14 14 14 14 13 13 12 11 9 8 7 6 5 5 4 3 3 4 4 4 4 5 6 6 5 5 5 5 4 4 4 4 4 4 4 3 2 2 2 2 3 4 5 5 5 5 4 3 3 2 2 2 2 1 2 2 2 2 2 1 2 3 3 3 3 3 3
14 14 14 14 13 13 12 11 10 9 8 8 7 6 5 5 4 4 3 3 4 5 5 5 6 5 5 4 4 5 4 4 3 3 3 2 3 3 3 2 2 3 3 5 5 4 4 5 5 4 4 3 3 2 2 2 2 2 2 2 2 2 3 3 4 4 4 3 3
13 14 13 13 12 11 10 9 8 8 7 7 7 6 6 6 6 5 4 4 4 5 5 5 5 4 3 3 4 4 4 4 3 2 2 2 2 2 3 3 3 3 4 6 5 5 5 5 5 5 5 4 3 3 3 3 2 2 2 2 3 3 3 4 4 4 4 4 3
13 13 13 12 10 9 8 8 7 7 7 6 6 7 7 7 7 7 6 6 5 5 4 4 4 3 3 3 4 4 4 4 3 3 2 2 2 2 3 3 3 4 5 6 5 5 6 6 6 6 6 6 4 3 3 3 3 3 3 3 3 4 4 4 4 3 3 3 3
13 12 12 11 9 8 7 7 7 6 6 6 6 7 7 7 8 8 7 6 5 5 4 3 3 3 4 4 4 4 4 4 3 3 3 3 3 3 3 3 3 4 5 6 6 6 7 7 8 8 8 7 5 3 3 3 3 3 3 3 4 4 4 4 4 4 3 3 3
12 12 12 11 9 8 7 7 6 6 6 5 6 6 7 7 7 7 7 6 5 5 4 3 3 4 4 4 3 3 4 4 3 3 2 2 2 3 3 3 4 4 6 7 7 7 8 8 9 9 9 8 5 4 3 3 3 3 3 4 4 4 4 4 4 4 4 3 3
11 11 12 11 9 8 7 7 7 6 6 6 6 6 6 6 6 6 6 5 5 4 4 4 4 4 5 4 4 4 4 4 3 3 2 2 2 3 3 4 4 5 7 9 9 10 10 10 10 10 9 8 6 4 3 3 3 3 3 3 4 4 4 4 4 4 4 4 3
10 11 11 10 9 8 8 7 7 7 7 6 6 6 6 6 6 6 6 5 4 4 4 4 4 4 4 4 3 3 3 3 3 3 3 2 3 3 4 5 5 7 9 12 13 13 13 12 11 10 9 8 6 4 3 3 2 2 2 2 3 3 3 4 4 3 3 3 3
9 10 10 9 8 8 8 8 8 7 7 7 7 7 6 6 6 6 5 4 4 3 3 4 4 3 3 2 2 2 3 3 3 3 4 4 4 5 5 6 6 8 12 14 15 15 14 13 12 11 10 9 6 4 3 2 2 2 2 3 3 3 3 4 4 4 3 3 3
8 9 8 8 8 8 7 8 7 7 7 7 7 7 7 6 6 6 5 4 4 3 4 4 3 3 2 2 2 2 3 4 4 4 4 4 5 6 7 7 7 10 14 15 15 14 14 15 15 15 13 10 6 4 3 3 3 3 3 3 4 4 4 4 4 4 4 4 4
8 8 8 8 7 7 7 7 7 7 7 7 7 7 7 7 6 6 5 5 4 4 4 4 3 3 3 3 3 3 4 4 5 5 5 5 6 7 7 8 8 11 14 15 14 14 15 16 17 16 14 10 7 5 4 3 3 3 3 4 4 4 4 4 4 4 4 4 4
7 7 7 7 8 7 7 7 7 7 7 7 7 7 7 7 7 6 6 5 5 5 5 4 3 3 3 3 3 3 4 4 5 6 6 6 6 7 7 8 8 10 12 14 14 15 16 17 17 16 13 8 7 6 5 4 3 3 4 4 4 4 4 4 4 4 4 4 5
7 7 7 7 8 8 8 7 7 7 7 7 7 7 7 7 6 6 6 5 5 5 5 4 3 2 2 2 3 3 4 4 5 6 6 6 6 6 7 7 8 8 10 14 15 16 17 17 16 15 12 7 6 5 5 4 4 4 4 4 4 4 4 4 4 4 5 5 8
7 7 7 8 8 8 8 8 7 7 7 7 7 7 7 6 6 6 6 6 5 5 4 3 2 2 2 2 3 4 4 5 5 5 5 5 5 6 7 7 7 7 9 14 16 16 16 16 15 14 11 7 5 4 4 4 4 4 4 4 4 4 4 4 4 4 5 6 10
7 7 7 8 8 8 8 8 8 7 7 6 7 7 7 6 6 6 6 6 6 5 3 2 2 2 2 2 3 4 5 5 5 5 4 4 5 7 8 6 6 7 9 12 15 15 15 14 14 13 10 5 4 4 4 4 4 5 5 5 5 5 5 5 5 5 5 6 9
6 7 7 8 8 8 8 8 8 7 6 6 6 6 6 6 5 5 6 6 5 4 3 2 2 2 2 2 3 4 5 5 4 4 3 4 5 6 7 5 6 6 7 10 13 14 14 14 14 13 11 5 4 3 3 4 4 5 5 6 5 5 5 5 5 5 5 6 6
Wind_Direction
35 35 36 35 34 30 25 18 11 9 11 16 353 339 334 341 336 328 317 305 284 269 261 255 255 257 260 264 284 314 344 6 22 34 42 46 50 49 48 47 48 50 53 56 59 60 59 56 57 55 49 41 36 34 33 29 19 12 7 4 1 359 356 351 341 333 329 325 325
27 27 27 26 21 17 10 2 354 347 340 332 321 317 319 323 322 317 311 301 288 281 277 277 274 274 277 287 323 12 36 48 59 65 67 64 63 61 59 56 53 54 55 57 59 60 59 55 57 54 47 37 32 28 25 22 20 19 17 15 11 6 1 356 344 334 329 328 331
17 15 14 12 9 3 357 348 339 331 324 317 311 310 311 310 309 307 304 299 292 286 282 281 283 289 307 348 39 59 69 78 82 81 76 69 64 62 61 60 56 55 56 59 61 63 64 63 63 60 53 44 37 31 25 19 23 27 28 26 26 19 9 356 344 338 336 339 340
4 3 0 357 352 347 339 329 322 318 315 313 312 310 308 306 305 304 301 298 292 285 278 275 294 329 25 58 71 79 87 90 86 82 77 73 69 67 67 67 63 60 58 59 62 66 70 72 71 67 61 55 49 43 34 25 30 35 37 34 30 20 7 351 342 338 338 341 344
349 347 343 340 334 330 326 322 320 318 317 318 319 318 316 315 314 312 310 306 299 292 285 291 355 46 69 84 86 85 81 76 78 80 80 78 76 74 72 71 68 63 59 59 62 66 70 74 73 69 64 59 56 50 42 36 39 41 40 35 26 13 359 345 339 338 339 342 347
346 343 341 339 338 336 333 332 329 327 326 328 330 330 329 330 330 329 326 320 313 310 314 339 40 72 77 80 74 69 65 63 68 74 79 80 79 75 72 70 67 64 60 59 59 62 65 70 70 66 62 60 59 51 43 40 45 44 40 31 20 6 354 346 342 342 343 346 349
351 351 350 349 349 348 347 344 341 339 338 339 341 341 340 341 340 337 334 329 326 326 329 341 360 22 40 50 50 49 49 49 51 56 64 71 71 70 68 67 65 63 61 58 57 58 61 67 69 66 62 62 60 51 45 49 53 50 41 27 11 359 350 344 343 345 346 347 348
360 359 359 358 358 356 353 351 349 347 347 348 348 346 344 345 345 346 346 348 345 342 341 348 356 7 19 29 30 30 29 30 30 31 36 47 53 56 58 59 59 58 58 57 58 59 62 67 71 71 70 68 67 60 55 59 60 54 42 20 2 351 348 344 345 347 347 345 343
6 4 3 3 2 359 356 354 352 351 349 348 345 344 343 346 349 355 360 2 1 2 4 6 7 14 20 23 20 17 15 15 16 16 19 28 36 41 44 46 47 46 45 47 55 61 65 70 75 77 79 80 79 74 68 67 63 55 41 16 354 346 342 342 345 345 344 341 337
5 4 2 2 359 357 354 352 351 349 348 344 341 338 338 339 344 352 360 6 17 27 31 30 29 30 30 26 19 14 9 7 8 9 12 18 24 28 31 34 37 35 32 30 44 57 66 72 77 80 85 91 94 91 82 76 70 60 42 9 351 343 339 336 340 342 340 334 330
1 359 358 356 353 351 350 349 347 346 344 341 337 334 332 329 329 332 345 16 37 43 46 50 51 50 47 38 28 19 13 10 10 12 13 14 14 15 17 19 23 23 20 14 28 50 65 74 79 81 84 95 106 105 98 89 82 71 44 344 346 341 336 329 331 334 333 328 326
355 353 352 350 348 347 346 346 344 342 340 336 333 330 327 321 317 319 341 31 51 56 59 62 66 67 66 60 48 37 29 25 22 19 15 10 4 1 357 355 355 357 357 356 19 51 73 82 89 89 91 102 122 123 117 109 99 87 45 327 335 335 327 317 320 322 325 327 326
350 349 347 346 345 345 344 343 341 339 337 334 331 328 324 318 313 319 359 49 65 71 73 73 76 78 79 80 72 61 51 42 34 25 11 354 341 333 327 320 314 313 317 323 350 76 97 105 115 120 131 171 178 160 147 136 129 126 133 301 314 310 305 303 307 314 324 332 331
348 347 345 344 344 344 343 341 339 337 334 332 329 327 324 320 319 332 48 74 83 88 90 88 87 88 91 94 94 91 86 77 62 29 333 303 294 288 284 280 279 280 283 284 267 154 138 143 154 162 172 194 205 195 176 158 154 159 176 216 260 277 285 291 301 316 331 337 334
347 346 345 344 344 342 341 339 336 334 333 331 329 327 326 325 331 2 90 95 102 107 109 105 102 103 106 110 117 118 118 122 142 215 257 265 263 261 259 260 264 266 265 261 249 211 184 178 183 186 190 199 208 206 195 178 173 175 183 197 219 245 268 284 301 320 334 339 336
347 345 344 343 342 341 339 337 335 333 332 330 329 328 328 330 342 42 111 116 122 124 122 118 116 117 122 134 142 140 142 156 184 214 235 247 251 252 254 256 259 257 252 249 250 240 224 208 200 197 198 204 210 210 204 193 187 187 190 195 204 222 246 271 296 318 331 338 337
346 345 343 342 340 339 337 335 334 333 331 329 329 328 328 332 340 65 132 137 138 136 131 123 122 127 142 165 165 161 164 181 201 217 230 239 244 248 251 255 254 250 243 238 246 252 250 240 223 212 208 211 214 213 209 202 195 192 192 193 199 212 231 255 281 310 329 338 335
345 343 342 341 339 337 336 334 333 331 329 328 328 327 326 329 327 255 152 152 146 138 128 118 124 137 155 173 186 199 207 214 222 229 235 239 241 244 249 253 252 248 241 235 243 251 257 256 245 234 226 224 224 220 214 204 195 187 184 187 199 211 227 246 267 301 326 336 329
344 342 341 340 338 336 335 334 332 330 328 326 326 325 324 322 304 229 178 179 157 133 123 119 133 149 162 176 216 247 253 245 242 243 245 244 243 245 249 253 255 253 249 244 249 255 259 261 255 248 241 238 235 228 216 196 183 179 180 187 199 210 227 247 265 291 320 331 325
342 341 340 338 337 335 334 333 331 328 327 326 324 323 320 314 286 237 200 176 156 126 118 124 143 158 170 195 259 272 272 263 255 254 254 253 252 252 254 257 263 267 268 263 260 261 261 261 258 252 245 240 236 227 206 175 176 182 188 191 197 209 226 245 267 299 322 329 321
342 340 338 337 336 334 333 331 329 328 326 326 323 320 317 311 292 266 195 135 126 111 107 120 141 165 222 275 281 279 276 272 264 261 260 261 261 261 263 269 279 284 283 272 262 257 256 256 254 249 241 232 223 206 186 173 181 188 194 198 209 222 233 244 273 308 322 321 313
341 339 338 336 335 333 332 330 329 328 328 327 323 320 319 319 322 345 13 49 68 76 77 71 15 323 306 293 283 280 278 277 271 267 264 265 269 276 284 296 291 283 273 263 255 253 253 254 252 245 230 209 199 186 178 175 177 180 192 236 251 257 258 261 286 307 310 302 297
341 339 337 335 334 332 331 330 330 330 330 329 326 325 329 341 10 22 17 10 22 34 35 19 338 310 295 285 279 277 277 279 278 276 274 273 281 291 300 303 278 259 253 248 243 243 244 250 250 242 220 191 183 181 178 173 165 157 160 263 281 286 286 289 296 298 293 287 283
340 338 336 334 333 332 332 332 333 334 333 331 332 337 349 11 36 38 27 17 19 17 8 340 309 293 286 281 278 276 276 277 279 281 283 287 292 298 300 297 267 250 246 246 241 234 228 225 228 224 212 193 183 180 177 171 161 159 165 207 281 295 300 299 294 287 281 279 276
340 337 336 334 333 332 333 336 337 337 336 334 342 353 7 21 35 33 23 14 6 353 334 314 301 293 289 287 286 284 281 274 273 276 284 296 302 304 304 304 284 270 264 263 253 240 227 215 207 199 194 187 177 172 172 174 172 173 177 189 235 279 294 296 290 282 274 269 269
339 337 335 334 333 334 337 342 342 341 341 344 356 5 9 11 17 15 6 354 340 327 317 309 302 298 295 295 298 295 287 272 264 265 275 292 303 311 318 317 299 288 279 273 259 243 226 216 206 195 184 175 169 166 172 190 191 189 190 194 208 237 265 279 281 279 275 269 267
339 337 335 333 334 338 343 346 347 348 352 357 1 360 355 349 347 345 341 332 322 317 313 309 302 298 297 301 302 298 292 283 275 269 270 282 302 314 318 315 300 289 279 271 256 240 226 220 212 200 187 176 171 173 181 199 204 204 204 209 215 224 236 252 262 267 272 275 273
339 337 335 334 338 343 348 349 352 357 360 359 352 344 337 331 328 324 321 316 315 314 312 306 300 299 301 307 304 301 298 299 300 300 303 312 320 320 317 309 300 288 278 268 254 242 236 234 226 213 200 186 180 178 183 192 205 212 217 222 225 227 230 236 245 254 262 271 275
339 337 337 337 342 347 350 350 355 358 358 351 341 333 326 322 318 314 312 312 312 310 305 299 299 304 312 315 311 310 311 314 320 329 340 349 343 331 318 308 300 290 281 270 257 250 247 247 241 232 219 204 192 184 185 192 204 215 224 229 227 227 229 232 237 243 249 257 267
341 340 340 341 345 347 348 347 351 352 349 341 333 326 321 317 314 312 309 308 305 300 294 293 304 312 315 314 315 321 327 332 339 349 357 358 349 336 323 311 300 290 284 277 267 261 259 257 252 246 236 219 205 195 194 200 209 219 228 235 232 229 228 227 228 230 234 241 254
344 344 345 346 347 346 343 343 344 343 340 332 326 321 317 315 311 308 305 302 299 298 300 308 316 317 315 315 324 333 341 346 354 360 5 3 350 335 322 314 304 296 292 291 286 280 274 269 264 257 249 233 219 210 209 215 220 226 233 238 237 233 228 223 219 218 220 225 237
347 348 350 351 348 344 341 341 341 338 333 326 320 315 312 309 305 302 300 299 301 307 315 324 324 323 323 327 335 344 351 357 360 1 359 356 345 336 329 326 320 313 310 311 309 305 298 289 281 273 263 249 236 227 225 232 234 238 242 247 246 243 238 230 222 218 217 219 226
349 351 353 352 346 342 341 341 340 336 331 326 320 315 311 308 306 306 307 308 309 313 319 322 323 324 327 331 339 348 356 2 4 1 356 349 346 345 344 341 333 329 328 329 328 326 322 315 307 297 286 272 260 249 241 248 255 265 274 280 278 273 265 257 248 241 235 234 239
349 351 352 349 344 341 340 340 339 337 334 330 327 324 323 322 320 320 320 318 314 312 313 315 317 319 322 325 340 356 3 6 9 7 1 354 355 357 357 352 344 342 343 344 344 344 344 345 342 336 325 309 295 281 274 284 298 314 326 328 323 312 299 286 278 275 275 278 283
346 347 346 342 339 337 337 337 338 339 339 337 335 334 334 334 331 329 324 318 313 311 312 312 316 321 326 332 358 15 18 16 15 13 9 4 7 7 4 357 351 351 353 356 357 1 6 11 12 9 4 354 343 332 325 323 330 339 344 344 336 325 314 302 298 298 301 305 306
341 340 337 333 331 330 331 334 338 340 340 337 335 334 334 333 330 326 320 313 312 311 311 312 322 335 348 355 10 21 26 25 24 21 18 17 19 15 9 2 356 356 359 4 9 16 22 25 25 23 20 15 8 0 355 353 352 352 352 351 343 335 326 319 315 313 311 310 306
335 333 330 326 324 324 326 329 333 334 334 331 330 329 329 328 325 322 318 315 315 314 313 315 329 346 360 10 23 30 32 34 33 30 26 23 24 20 14 7 2 360 3 10 19 25 28 29 29 28 26 20 13 7 4 3 1 360 358 357 350 342 334 326 319 313 308 304 303
328 327 325 323 321 321 322 324 326 327 326 325 325 325 326 326 324 322 320 319 318 317 316 319 339 355 6 18 38 42 40 39 40 37 32 26 26 25 22 15 7 4 7 16 24 28 28 28 30 30 29 23 13 7 4 1 1 360 359 355 346 337 328 320 314 309 305 302 308
322 322 322 321 319 318 318 319 320 320 320 322 323 324 324 324 323 322 323 322 321 320 320 329 353 3 7 22 46 47 42 37 39 39 37 30 30 31 31 25 13 7 11 19 26 28 27 25 28 30 32 28 15 6 0 357 356 354 350 345 336 328 321 316 312 309 305 302 309
317 318 319 318 317 316 315 315 315 316 318 321 322 322 322 320 319 321 324 325 325 325 331 359 17 15 14 35 52 50 42 33 31 34 37 36 37 37 37 31 19 12 13 20 25 26 24 21 21 25 28 30 17 5 356 350 346 342 337 333 328 322 317 312 309 306 304 302 307
315 316 317 316 314 313 312 311 312 313 316 319 319 317 316 315 317 322 326 327 327 331 345 26 35 30 30 45 56 53 45 33 22 20 29 40 42 41 39 33 23 16 15 19 23 23 21 15 12 12 14 18 13 1 350 344 337 332 327 322 318 315 311 308 305 303 302 302 304